Louis Armstrong New Orleans International Airport
KMSY : rendu visible

Aérodrome :











RETROUVEZ-NOUS SUR...

 
LOGIN :

S'inscrire | Disclaimer

   EN    FR    IT 

 









Légende :    VFR   VFR Marginal   IFR   IFR Intensif   IFR Très Intensif
Visi : 
Plafond : 
>= 8 km
>= 3000ft
5 à 8 km
1000 à 3000 ft
1500m à 5 km
500 à 1000 ft
800 à 1500m
200 à 500 ft
< 800m
< 200 ft
Symboles :   Orages  Brouillard  Fortes neiges  Fortes précipitations  Vent > 20 kt






- Altitude de l'aérodrome : 4 ft
- Code IATA : MSY


KMSY - Louis Armstrong New Orleans International

DERNIER METAR :
  • 031753Z 31009KT 10SM SCT030 33/22 A2998 RMK AO2 SLP154 T03280217 10333 20256 58006

METARs EXPIRÉS :
  • 031653Z 36008KT 10SM SCT027 33/22 A2999 RMK AO2 SLP159 T03280222
  • 031553Z VRB05KT 10SM SCT023 SCT090 31/24 A3000 RMK AO2 SLP161 T03110239

TAF KMSY
Valide du 03 à 18h jusqu'au 05 à 00h UTC


031729Z 0318/0424 36008KT P6SM SCT030
FM040100 VRB03KT P6SM FEW250
FM041900 31007KT P6SM SCT030
FIR KZHU / Amérique du Nord



MET'MAP, la Météo Aéronautique d'un coup d'oeil ! - Copyright ORBIFLY Décembre 2007 - Disclaimer

ORBIFLY MET'MAP TEAM :

Programmation & Développement : Alexandra Zaïnal
Sur une idée originale de : Baudouin d'Aumeries
Assistance à la programmation : Marc-Olivier Méhu
Soutien technique & logistique : Manuel Goepfert

Contact : metmap@orbifly.com




SOURCES & CREDITS :

   NOAA       Earth
Advisory